When you browse on this site, cookies collect data to enhance your experience and personalize the content and advertising you see.
Visit our Privacy Policy to learn more. By continuing to use the site, you agree to this use of cookies and data.
  • In Italy
  • List of Countries
  • For 7 days
  • Water Temperature
  • Satellite Maps
  • Weather Map
  • Weather Widgets
  • user-avatar
    Login

    Hourly Weather Murzynowo

    Today, 20 February, Wednesday

    Time Temperature Precipitation Wind Pressure Humidity
    00:00 +3°C° 0 mm 5 mps 752 mmHg 87%
    01:00 +2°C° 0 mm 5 mps 752 mmHg 87%
    02:00 +2°C° 0 mm 5 mps 752 mmHg 88%
    03:00 +2°C° 0 mm 5 mps 752 mmHg 89%
    04:00 +2°C° 0 mm 5 mps 752 mmHg 90%
    05:00 +2°C° 0 mm 5 mps 752 mmHg 88%
    06:00 +2°C° 0 mm 5 mps 753 mmHg 85%
    07:00 +2°C° 0 mm 6 mps 753 mmHg 83%
    08:00 +2°C° 0.1 mm 6 mps 753 mmHg 80%
    09:00 +3°C° 0.1 mm 7 mps 754 mmHg 77%
    10:00 +3°C° 0.1 mm 7 mps 754 mmHg 74%
    11:00 +4°C° 0.1 mm 7 mps 754 mmHg 71%
    12:00 +4°C° 0.1 mm 7 mps 755 mmHg 69%
    13:00 +4°C° 0.1 mm 7 mps 755 mmHg 67%
    14:00 +4°C° 0 mm 7 mps 755 mmHg 68%
    15:00 +4°C° 0 mm 6 mps 755 mmHg 68%
    16:00 +4°C° 0 mm 6 mps 756 mmHg 68%
    17:00 +4°C° 0 mm 6 mps 756 mmHg 70%
    18:00 +3°C° 0 mm 5 mps 757 mmHg 72%
    19:00 +3°C° 0 mm 5 mps 757 mmHg 74%
    20:00 +4°C° 0 mm 4 mps 757 mmHg 76%
    21:00 +4°C° 0 mm 4 mps 757 mmHg 78%
    22:00 +3°C° 0 mm 4 mps 758 mmHg 80%
    23:00 +3°C° 0 mm 3 mps 758 mmHg 84%

    Tomorrow, 21 February, Thursday

    Time Temperature Precipitation Wind Pressure Humidity
    00:00 +2°C° 0 mm 3 mps 758 mmHg 88%
    01:00 +2°C° 0 mm 3 mps 758 mmHg 92%
    02:00 +2°C° 0 mm 3 mps 758 mmHg 93%
    03:00 +3°C° 0 mm 2 mps 758 mmHg 94%
    04:00 +3°C° 0 mm 2 mps 758 mmHg 95%
    05:00 +3°C° 0.3 mm 2 mps 758 mmHg 95%
    06:00 +2°C° 0.3 mm 3 mps 758 mmHg 95%
    07:00 +3°C° 0.3 mm 3 mps 757 mmHg 95%
    08:00 +3°C° 0.5 mm 4 mps 757 mmHg 93%
    09:00 +3°C° 0.5 mm 4 mps 757 mmHg 90%
    10:00 +3°C° 0.5 mm 5 mps 757 mmHg 88%
    11:00 +3°C° 1.1 mm 5 mps 756 mmHg 88%
    12:00 +3°C° 1.1 mm 5 mps 756 mmHg 89%
    13:00 +3°C° 1.1 mm 5 mps 755 mmHg 90%
    14:00 +3°C° 0.5 mm 5 mps 755 mmHg 90%
    15:00 +5°C° 0.5 mm 5 mps 755 mmHg 89%
    16:00 +5°C° 0.5 mm 5 mps 754 mmHg 89%
    17:00 +4°C° 0.5 mm 6 mps 754 mmHg 89%
    18:00 +4°C° 0.5 mm 6 mps 754 mmHg 89%
    19:00 +5°C° 0.5 mm 6 mps 754 mmHg 90%
    20:00 +5°C° 0.1 mm 6 mps 755 mmHg 90%
    21:00 +5°C° 0.1 mm 6 mps 755 mmHg 90%
    22:00 +5°C° 0.1 mm 6 mps 755 mmHg 90%
    23:00 +4°C° 0.5 mm 6 mps 756 mmHg 90%

    Day after tomorrow, 22 February, Friday

    Time Temperature Precipitation Wind Pressure Humidity
    00:00 +4°C° 0.5 mm 6 mps 756 mmHg 90%
    01:00 +4°C° 0.5 mm 6 mps 757 mmHg 90%
    02:00 +2°C° 0.3 mm 6 mps 757 mmHg 87%
    03:00 -1°C° 0.3 mm 6 mps 758 mmHg 84%
    04:00 -3°C° 0.3 mm 6 mps 759 mmHg 81%
    05:00 -2°C° 0 mm 5 mps 760 mmHg 75%
    06:00 -4°C° 0 mm 5 mps 761 mmHg 70%
    07:00 -4°C° 0 mm 5 mps 763 mmHg 64%
    08:00 -4°C° 0 mm 5 mps 764 mmHg 61%
    09:00 -4°C° 0 mm 5 mps 765 mmHg 59%
    10:00 -4°C° 0 mm 5 mps 766 mmHg 57%
    11:00 -2°C° 0 mm 5 mps 767 mmHg 53%
    12:00 -2°C° 0 mm 5 mps 767 mmHg 50%
    13:00 -2°C° 0 mm 5 mps 768 mmHg 46%
    14:00 -2°C° 0 mm 4 mps 769 mmHg 47%
    15:00 -2°C° 0 mm 4 mps 769 mmHg 48%
    16:00 -3°C° 0 mm 4 mps 770 mmHg 49%
    17:00 -3°C° 0 mm 4 mps 770 mmHg 52%
    18:00 -4°C° 0 mm 3 mps 771 mmHg 54%
    19:00 -4°C° 0 mm 3 mps 771 mmHg 56%
    20:00 -5°C° 0 mm 3 mps 772 mmHg 53%
    21:00 -5°C° 0 mm 3 mps 772 mmHg 51%
    22:00 -5°C° 0 mm 3 mps 773 mmHg 48%
    23:00 -4°C° 0 mm 2 mps 773 mmHg 46%

    23 February, Saturday

    Time Temperature Precipitation Wind Pressure Humidity
    00:00 -4°C° 0 mm 2 mps 773 mmHg 44%
    01:00 -4°C° 0 mm 2 mps 774 mmHg 42%
    02:00 -2°C° 0 mm 1 mps 773 mmHg 42%
    03:00 -2°C° 0 mm 1 mps 773 mmHg 42%
    04:00 -2°C° 0 mm 1 mps 773 mmHg 42%
    05:00 -2°C° 0 mm 1 mps 773 mmHg 42%
    06:00 -3°C° 0 mm 0 mps 774 mmHg 42%
    07:00 -3°C° 0 mm 0 mps 774 mmHg 42%
    08:00 -1°C° 0 mm 1 mps 774 mmHg 38%
    09:00 -1°C° 0 mm 1 mps 774 mmHg 34%
    10:00 0°C° 0 mm 1 mps 774 mmHg 30%
    11:00 -1°C° 0 mm 2 mps 774 mmHg 28%
    12:00 +1°C° 0 mm 2 mps 773 mmHg 27%
    13:00 +1°C° 0 mm 3 mps 773 mmHg 26%
    14:00 +2°C° 0 mm 2 mps 773 mmHg 29%
    15:00 +2°C° 0 mm 2 mps 772 mmHg 32%
    16:00 +1°C° 0 mm 2 mps 772 mmHg 35%
    17:00 +1°C° 0 mm 2 mps 772 mmHg 39%
    18:00 -1°C° 0 mm 2 mps 772 mmHg 42%
    19:00 -2°C° 0 mm 2 mps 772 mmHg 45%
    20:00 -2°C° 0 mm 2 mps 771 mmHg 45%
    21:00 -2°C° 0 mm 2 mps 771 mmHg 46%
    22:00 -1°C° 0 mm 3 mps 771 mmHg 46%
    23:00 -1°C° 0 mm 2 mps 770 mmHg 47%

    24 February, Sunday

    Time Temperature Precipitation Wind Pressure Humidity
    00:00 -2°C° 0 mm 2 mps 770 mmHg 49%
    01:00 -2°C° 0 mm 2 mps 770 mmHg 50%
    02:00 -2°C° 0 mm 2 mps 770 mmHg 51%
    03:00 -2°C° 0 mm 2 mps 769 mmHg 52%
    04:00 -2°C° 0 mm 2 mps 769 mmHg 53%
    05:00 -2°C° 0 mm 2 mps 769 mmHg 53%
    06:00 -2°C° 0 mm 2 mps 769 mmHg 53%
    07:00 -2°C° 0 mm 2 mps 768 mmHg 53%
    08:00 -1°C° 0 mm 3 mps 768 mmHg 50%
    09:00 0°C° 0 mm 3 mps 768 mmHg 47%
    10:00 +2°C° 0 mm 3 mps 768 mmHg 44%
    11:00 +3°C° 0 mm 3 mps 768 mmHg 45%
    12:00 +4°C° 0 mm 3 mps 768 mmHg 46%
    13:00 +5°C° 0 mm 3 mps 767 mmHg 48%
    14:00 +5°C° 0 mm 2 mps 767 mmHg 52%
    15:00 +5°C° 0 mm 2 mps 767 mmHg 57%
    16:00 +5°C° 0 mm 1 mps 767 mmHg 61%
    17:00 +4°C° 0 mm 1 mps 767 mmHg 63%
    18:00 +4°C° 0 mm 1 mps 767 mmHg 66%
    19:00 +3°C° 0 mm 1 mps 767 mmHg 68%
    20:00 +3°C° 0 mm 1 mps 766 mmHg 68%
    21:00 +3°C° 0 mm 1 mps 766 mmHg 68%
    22:00 +3°C° 0 mm 1 mps 766 mmHg 68%
    23:00 +3°C° 0 mm 1 mps 766 mmHg 68%

    25 February, Monday

    Time Temperature Precipitation Wind Pressure Humidity
    00:00 +2°C° 0 mm 2 mps 766 mmHg 68%
    01:00 +1°C° 0 mm 2 mps 766 mmHg 68%
    02:00 +1°C° 0 mm 2 mps 766 mmHg 70%
    03:00 +1°C° 0 mm 2 mps 765 mmHg 72%
    04:00 +1°C° 0 mm 2 mps 765 mmHg 74%
    05:00 +1°C° 0 mm 2 mps 765 mmHg 77%
    06:00 -1°C° 0 mm 3 mps 765 mmHg 79%
    07:00 -1°C° 0 mm 3 mps 766 mmHg 81%
    08:00 +1°C° 0 mm 3 mps 766 mmHg 80%
    09:00 +2°C° 0 mm 3 mps 766 mmHg 78%
    10:00 +3°C° 0 mm 3 mps 766 mmHg 76%
    11:00 +4°C° 0 mm 3 mps 766 mmHg 78%
    12:00 +5°C° 0 mm 3 mps 766 mmHg 79%
    13:00 +5°C° 0 mm 4 mps 766 mmHg 80%
    14:00 +5°C° 0 mm 3 mps 766 mmHg 81%
    15:00 +5°C° 0 mm 3 mps 766 mmHg 81%
    16:00 +5°C° 0 mm 3 mps 766 mmHg 82%
    17:00 +4°C° 0 mm 3 mps 766 mmHg 85%
    18:00 +4°C° 0 mm 3 mps 766 mmHg 88%
    19:00 +4°C° 0 mm 2 mps 766 mmHg 91%
    20:00 +3°C° 0 mm 2 mps 766 mmHg 91%
    21:00 +3°C° 0 mm 2 mps 766 mmHg 91%
    22:00 +2°C° 0 mm 3 mps 766 mmHg 91%
    23:00 +2°C° 0 mm 2 mps 766 mmHg 92%
    Show more